KA6UPU-1 Weather Reports


time (UTC)temp
F
wind
direction
speed
knots
gust
knots
rain 1hr
in
rain 24hr
in
rain mn
in
humidity
%
barometer
mb
20260503175746 60 303 1.7 8.7 0.00 0.00 0.00 73 1012.8
20260503174747 60 311 2.6 7.8 0.00 0.00 0.00 72 1012.7
20260503174246 60 324 3.5 9.6 0.00 0.00 0.00 71 1012.6
20260503173245 60 285 0.9 8.7 0.00 0.00 0.00 72 1012.5
20260503172746 60 265 4.3 10.4 0.00 0.00 0.00 71 1012.5
20260503172246 61 319 2.6 10.4 0.00 0.00 0.00 69 1012.4
20260503171746 61 264 4.3 11.3 0.00 0.00 0.00 69 1012.5
20260503170745 61 283 3.5 8.7 0.00 0.00 0.00 71 1012.3
20260503170245 61 265 2.6 8.7 0.00 0.00 0.00 70 1012.4
20260503150745 55 303 1.7 6.1 0.00 0.00 0.00 80 1012.0
20260503150245 55 249 1.7 6.1 0.00 0.00 0.00 81 1012.0
20260503140247 54 272 2.6 7.8 0.00 0.00 0.00 81 1011.4
20260503131245 54 274 2.6 8.7 0.00 0.00 0.00 81 1010.7
20260503130745 54 0 0.0 7.0 0.00 0.00 0.00 81 1010.7
20260503130245 54 308 0.9 7.0 0.00 0.00 0.00 81 1010.6
20260503110412 54 0 0.0 10.4 0.00 0.00 0.00 81 1010.5
20260503081549 54 258 1.7 5.2 0.00 0.00 0.00 81 1011.1
20260503080548 54 0 0.0 6.1 0.00 0.00 0.00 81 1011.3
20260503072548 55 309 2.6 5.2 0.00 0.00 0.00 81 1011.3
20260503072048 55 0 0.0 4.3 0.00 0.00 0.00 81 1011.4
20260503071548 55 208 0.9 4.3 0.00 0.00 0.00 81 1011.3
20260503071049 55 254 0.9 4.3 0.00 0.00 0.00 81 1011.3
20260503070909 55 277 0.9 2.6 0.00 0.00 0.00 81 1011.4
20260503070548 55 277 0.9 2.6 0.00 0.00 0.00 81 1011.4
20260503055048 55 277 3.5 7.8 0.00 0.00 0.00 81 1011.8
20260503054548 55 277 1.7 7.8 0.00 0.00 0.00 81 1011.9
20260503054048 55 250 2.6 8.7 0.00 0.00 0.00 81 1011.9
20260503053549 55 263 3.5 8.7 0.00 0.00 0.00 82 1011.9
20260503053048 55 272 0.9 5.2 0.00 0.00 0.00 82 1011.9
20260503052548 55 279 0.9 5.2 0.00 0.00 0.00 82 1011.9
20260503052048 55 0 0.0 5.2 0.00 0.00 0.00 82 1011.9
20260503051548 55 0 0.0 5.2 0.00 0.00 0.00 82 1011.9
20260503051048 55 251 1.7 6.1 0.00 0.00 0.00 82 1011.9
20260503050548 55 263 1.7 6.1 0.00 0.00 0.00 82 1011.9
20260503050048 55 0 0.0 2.6 0.00 0.00 0.00 82 1011.8
20260503045528 55 244 0.9 6.1 0.00 0.00 0.00 82 1011.8
20260503045028 55 244 0.9 6.1 0.00 0.00 0.00 82 1011.7
20260503044028 55 263 1.7 4.3 0.00 0.00 0.00 82 1011.7
20260503043528 55 0 0.0 4.3 0.00 0.00 0.00 81 1011.6
20260503043028 55 278 0.9 3.5 0.00 0.00 0.00 81 1011.6
20260503042528 55 283 1.7 5.2 0.00 0.00 0.00 81 1011.5
20260503042028 55 289 1.7 5.2 0.00 0.00 0.00 81 1011.6
20260503041528 55 303 0.9 3.5 0.00 0.00 0.00 81 1011.5
20260503040735 55 247 0.9 6.1 0.00 0.00 0.00 81 1011.4
20260503040606 55 0 0.0 3.5 0.00 0.00 0.00 81 1011.5
20260503040235 55 0 0.0 3.5 0.00 0.00 0.00 81 1011.5
20260503035735 55 289 0.9 3.5 0.00 0.00 0.00 81 1011.4
20260503035235 55 298 0.9 3.5 0.00 0.00 0.00 81 1011.3
20260503034735 55 311 0.9 7.0 0.00 0.00 0.00 81 1011.3
20260503034235 55 316 0.9 7.0 0.00 0.00 0.00 80 1011.3
20260503033735 55 316 0.9 8.7 0.00 0.00 0.00 80 1011.2
20260503033235 55 333 1.7 8.7 0.00 0.00 0.00 80 1011.2
20260503032735 55 344 1.7 7.8 0.00 0.00 0.00 80 1011.1
20260503032235 55 292 1.7 7.8 0.00 0.00 0.00 80 1011.1
20260503031735 56 297 2.6 7.0 0.00 0.00 0.00 80 1011.0
20260503031235 56 313 0.9 7.0 0.00 0.00 0.00 79 1010.9
20260503030735 56 0 0.0 4.3 0.00 0.00 0.00 79 1010.8
20260503030235 56 15 0.9 5.2 0.00 0.00 0.00 79 1010.8
20260503025235 56 317 1.7 6.1 0.00 0.00 0.00 78 1010.8
20260503024735 56 320 2.6 6.1 0.00 0.00 0.00 77 1010.7
20260503024235 57 0 0.0 6.1 0.00 0.00 0.00 77 1010.7
20260503023358 57 331 1.7 4.3 0.00 0.00 0.00 77 1010.6
20260503022858 57 0 0.0 6.1 0.00 0.00 0.00 76 1010.6
20260503021358 57 306 1.7 7.0 0.00 0.00 0.00 75 1010.6
20260503020358 57 284 2.6 9.6 0.00 0.00 0.00 75 1010.6
20260503015858 58 294 4.3 9.6 0.00 0.00 0.00 74 1010.5
20260503015358 58 293 4.3 9.6 0.00 0.00 0.00 73 1010.6
20260503013858 59 251 2.6 11.3 0.00 0.00 0.00 71 1010.5
20260503013358 59 275 2.6 9.6 0.00 0.00 0.00 71 1010.5
20260503012858 59 279 3.5 9.6 0.00 0.00 0.00 71 1010.6
20260503012358 59 303 3.5 11.3 0.00 0.00 0.00 70 1010.6
20260503011858 60 296 5.2 11.3 0.00 0.00 0.00 70 1010.6
20260503011358 60 294 4.3 9.6 0.00 0.00 0.00 70 1010.7
20260503010858 60 281 2.6 9.6 0.00 0.00 0.00 70 1010.7
20260503010358 60 276 2.6 9.6 0.00 0.00 0.00 70 1010.7
20260503005358 60 274 3.5 9.6 0.00 0.00 0.00 69 1010.7
20260503004415 61 304 3.5 14.8 0.00 0.00 0.00 68 1010.7
20260503003415 61 322 4.3 11.3 0.00 0.00 0.00 68 1010.6
20260503002915 62 306 6.1 11.3 0.00 0.00 0.00 67 1010.7
20260503002417 62 333 5.2 10.4 0.00 0.00 0.00 67 1010.6
20260503001915 62 344 3.5 11.3 0.00 0.00 0.00 68 1010.6
20260503000415 62 350 2.6 13.0 0.00 0.00 0.00 67 1010.7
20260502235915 62 311 2.6 14.8 0.00 0.00 0.00 66 1010.7
20260502235415 63 296 5.2 14.8 0.00 0.00 0.00 66 1010.8
20260502234915 63 3 4.3 12.2 0.00 0.00 0.00 65 1010.9
20260502234415 63 289 5.2 13.0 0.00 0.00 0.00 65 1010.9
20260502233915 63 309 3.5 13.0 0.00 0.00 0.00 65 1010.9
20260502232915 64 290 4.3 12.2 0.00 0.00 0.00 64 1011.0
20260502232415 64 312 5.2 13.9 0.00 0.00 0.00 64 1011.1
20260502231915 64 307 5.2 13.9 0.00 0.00 0.00 64 1011.2
20260502231416 64 310 7.0 13.0 0.00 0.00 0.00 63 1011.2
20260502230915 64 351 4.3 13.0 0.00 0.00 0.00 63 1011.2
20260502230415 65 289 6.1 14.8 0.00 0.00 0.00 63 1011.4
20260502230234 55 0 0.0 9.6 0.00 0.00 0.00 81 1012.6
20260502225915 65 276 5.2 14.8 0.00 0.00 0.00 63 1011.4
20260502225348 65 311 6.1 15.6 0.00 0.00 0.00 61 1011.4
20260502224849 66 306 5.2 15.6 0.00 0.00 0.00 61 1011.5
20260502224348 66 290 5.2 11.3 0.00 0.00 0.00 62 1011.5
20260502223848 66 295 4.3 13.0 0.00 0.00 0.00 62 1011.6
20260502223348 65 257 3.5 13.0 0.00 0.00 0.00 62 1011.7
20260502222848 65 308 6.1 15.6 0.00 0.00 0.00 63 1011.7
20260502222348 65 292 7.8 15.6 0.00 0.00 0.00 61 1011.8
20260502221848 66 277 7.0 12.2 0.00 0.00 0.00 62 1012.0
20260502220848 65 261 4.3 14.8 0.00 0.00 0.00 63 1011.9
20260502220348 65 246 4.3 14.8 0.00 0.00 0.00 63 1011.9
20260502215637 65 264 7.0 13.9 0.00 0.00 0.00 63 1012.1
20260502214637 65 312 5.2 13.9 0.00 0.00 0.00 64 1012.2
20260502214137 65 282 6.1 13.9 0.00 0.00 0.00 63 1012.3
20260502213637 65 284 5.2 13.9 0.00 0.00 0.00 65 1012.2
20260502213137 64 274 3.5 15.6 0.00 0.00 0.00 65 1012.4
20260502212637 64 271 5.2 15.6 0.00 0.00 0.00 64 1012.3
20260502212137 64 305 7.0 15.6 0.00 0.00 0.00 65 1012.4
20260502211637 64 304 6.1 15.6 0.00 0.00 0.00 66 1012.6
20260502211138 64 289 5.2 13.9 0.00 0.00 0.00 67 1012.7
20260502210637 63 285 5.2 13.9 0.00 0.00 0.00 68 1012.7
20260502205637 63 297 7.0 11.3 0.00 0.00 0.00 68 1012.9
20260502204637 64 322 5.2 11.3 0.00 0.00 0.00 69 1013.0
20260502204137 63 228 1.7 13.0 0.00 0.00 0.00 69 1012.9
20260502203637 63 290 6.1 13.0 0.00 0.00 0.00 69 1013.0
20260502203137 63 293 2.6 11.3 0.00 0.00 0.00 70 1013.0
20260502202637 63 291 2.6 11.3 0.00 0.00 0.00 71 1013.1
20260502202137 63 310 3.5 9.6 0.00 0.00 0.00 71 1013.2
20260502201637 63 297 2.6 9.6 0.00 0.00 0.00 71 1013.2
20260502201137 63 288 1.7 11.3 0.00 0.00 0.00 72 1013.3
20260502200639 62 226 2.6 11.3 0.00 0.00 0.00 72 1013.2
20260502200137 62 258 5.2 11.3 0.00 0.00 0.00 73 1013.3
20260502195637 61 224 1.7 11.3 0.00 0.00 0.00 76 1013.3
20260502194638 60 284 6.1 12.2 0.00 0.00 0.00 76 1013.4
20260502194137 60 245 4.3 13.0 0.00 0.00 0.00 77 1013.3
20260502193637 59 281 7.0 13.9 0.00 0.00 0.00 77 1013.4
20260502193137 59 286 2.6 13.9 0.00 0.00 0.00 78 1013.4
20260502192137 59 268 7.0 13.0 0.00 0.00 0.00 77 1013.4
20260502191637 59 282 4.3 13.0 0.00 0.00 0.00 78 1013.4
20260502191137 59 293 3.5 12.2 0.00 0.00 0.00 77 1013.5
20260502190637 60 285 6.1 12.2 0.00 0.00 0.00 77 1013.5
20260502190137 60 304 4.3 13.0 0.00 0.00 0.00 78 1013.4
20260502185137 59 283 5.2 13.0 0.00 0.00 0.00 79 1013.5
20260502184637 58 274 4.3 13.0 0.00 0.00 0.00 80 1013.5
20260502183637 58 292 3.5 13.0 0.00 0.00 0.00 81 1013.5
20260502183137 57 318 5.2 13.0 0.00 0.00 0.00 81 1013.4
20260502181637 57 296 1.7 11.3 0.00 0.00 0.00 82 1013.4
20260502180637 57 308 4.3 13.0 0.00 0.00 0.00 81 1013.4